This is the latest recevied weather packets stored in our database for station/object K1WJY. If no packets are shown the sender has not sent any weather packets the latest 10 day(s).
| Time | Temp. | Humidity | Pressure | Rain* | Wind** | Luminosity | Snow |
|---|---|---|---|---|---|---|---|
| 1777980033 | 11.11° C | 86% | 1011.6 hPa | 0 mm | - | 73 W/m² | - |
| 1777979726 | 11.11° C | 87% | 1011.6 hPa | 0 mm | - | 72 W/m² | - |
| 1777979423 | 10.56° C | 87% | 1011.6 hPa | 0 mm | - | 72 W/m² | - |
| 1777979119 | 10.56° C | 87% | 1011.8 hPa | 0 mm | - | 146 W/m² | - |
| 1777978816 | 10.56° C | 88% | 1011.7 hPa | 0 mm | - | 138 W/m² | - |
| 1777978513 | 10.56° C | 89% | 1011.7 hPa | 0 mm | - | 87 W/m² | - |
| 1777978209 | 10° C | 89% | 1011.6 hPa | 0 mm | - | 61 W/m² | - |
| 1777977906 | 10° C | 90% | 1011.7 hPa | 0 mm | - | 63 W/m² | - |
| 1777977603 | 9.44° C | 90% | 1011.6 hPa | 0 mm | - | 56 W/m² | - |
| 1777977300 | 9.44° C | 91% | 1011.7 hPa | 0 mm | - | 54 W/m² | - |
| 1777976997 | 8.89° C | 92% | 1011.6 hPa | 0 mm | - | 50 W/m² | - |
| 1777976694 | 8.89° C | 93% | 1011.6 hPa | 0 mm | - | 46 W/m² | - |
| 1777976391 | 8.89° C | 93% | 1011.7 hPa | 0 mm | - | 40 W/m² | - |
| 1777976090 | 8.33° C | 94% | 1011.5 hPa | 0 mm | - | 38 W/m² | - |
| 1777975786 | 8.33° C | 94% | 1011.5 hPa | 0 mm | - | 35 W/m² | - |
| 1777975483 | 8.33° C | 94% | 1011.5 hPa | 0 mm | - | 32 W/m² | - |
| 1777975179 | 8.33° C | 94% | 1011.4 hPa | 0 mm | - | 29 W/m² | - |
| 1777974876 | 8.33° C | 94% | 1011.3 hPa | 0 mm | - | 24 W/m² | - |
| 1777974572 | 8.33° C | 94% | 1011.5 hPa | 0 mm | - | 19 W/m² | - |
| 1777974269 | 8.33° C | 94% | 1011.2 hPa | 0 mm | - | 15 W/m² | - |
| 1777973965 | 8.33° C | 94% | 1011.3 hPa | 0 mm | - | 12 W/m² | - |
| 1777973662 | 8.33° C | 94% | 1011.3 hPa | 0 mm | - | 10 W/m² | - |
| 1777973359 | 7.78° C | 94% | 1011 hPa | 0 mm | - | 6 W/m² | - |
| 1777973057 | 7.78° C | 94% | 1011.2 hPa | 0 mm | - | 3 W/m² | - |
| 1777972754 | 7.78° C | 94% | 1011.3 hPa | 0 mm | - | 2 W/m² | - |
* Rain latest hour (hover to see other rain measurements)
** Current wind speed in m/s (hover to see current wind gust speed)